Time,TemperatureF,DewpointF,PressureIn,WindDirection,WindDirectionDegrees,WindSpeedMPH,WindSpeedGustMPH,Humidity,HourlyPrecipIn,Conditions,Clouds,dailyrainin,SoftwareType,DateUTC
2013-03-09 00:00:00,41.5,25.2,30.32,East,100,0.0,0.0,52,14.40,,,99.99,Wunderground v.1.15,2013-03-09 05:00:00,
2013-03-09 00:01:00,41.3,25.0,30.32,East,100,0.0,0.0,52,14.40,,,99.99,Wunderground v.1.15,2013-03-09 05:01:00,
2013-03-09 00:03:00,41.3,25.0,30.32,East,100,1.0,1.0,52,14.40,,,99.99,Wunderground v.1.15,2013-03-09 05:03:00,
2013-03-09 00:04:00,41.5,24.7,30.32,East,100,0.0,1.0,51,14.40,,,99.99,Wunderground v.1.15,2013-03-09 05:04:00,
2013-03-09 00:10:00,41.3,25.0,30.31,East,100,0.0,0.0,52,14.40,,,99.99,Wunderground v.1.15,2013-03-09 05:10:00,
2013-03-09 00:16:00,41.1,24.8,30.31,East,100,0.0,0.0,52,14.40,,,1.27,Wunderground v.1.15,2013-03-09 05:16:00,
2013-03-09 00:21:00,41.1,24.8,30.31,East,100,0.0,0.0,52,14.40,,,2.34,Wunderground v.1.15,2013-03-09 05:21:00,
2013-03-09 00:26:00,41.1,24.8,30.31,East,100,0.0,0.0,52,14.40,,,3.57,Wunderground v.1.15,2013-03-09 05:26:00,
2013-03-09 00:31:00,41.1,25.3,30.31,East,100,0.0,0.0,53,14.40,,,4.76,Wunderground v.1.15,2013-03-09 05:31:00,
2013-03-09 00:37:00,41.1,24.8,30.31,East,100,2.0,2.0,52,14.40,,,6.03,Wunderground v.1.15,2013-03-09 05:37:00,
2013-03-09 00:42:00,41.1,25.3,30.30,East,100,0.0,1.0,53,14.40,,,7.30,Wunderground v.1.15,2013-03-09 05:42:00,
2013-03-09 00:47:00,41.1,25.3,30.30,East,100,0.0,1.0,53,14.40,,,8.41,Wunderground v.1.15,2013-03-09 05:47:00,
2013-03-09 00:52:00,40.9,24.6,30.30,East,100,0.0,0.0,52,14.40,,,9.52,Wunderground v.1.15,2013-03-09 05:52:00,
2013-03-09 00:57:00,40.9,25.1,30.30,East,100,0.0,2.0,53,14.40,,,10.71,Wunderground v.1.15,2013-03-09 05:57:00,
2013-03-09 01:03:00,40.8,25.0,30.30,East,100,0.0,0.0,53,14.40,,,12.14,Wunderground v.1.15,2013-03-09 06:03:00,
2013-03-09 01:09:00,40.6,25.2,30.30,East,100,0.0,2.0,54,14.40,,,13.53,Wunderground v.1.15,2013-03-09 06:09:00,
2013-03-09 01:14:00,40.6,25.2,30.29,East,100,0.0,0.0,54,14.40,,,14.72,Wunderground v.1.15,2013-03-09 06:14:00,
2013-03-09 01:19:00,40.8,25.4,30.29,East,100,0.0,3.0,54,14.40,,,15.91,Wunderground v.1.15,2013-03-09 06:19:00,
2013-03-09 01:24:00,40.8,25.4,30.29,East,100,0.0,1.0,54,14.40,,,17.02,Wunderground v.1.15,2013-03-09 06:24:00,
2013-03-09 01:29:00,40.8,25.0,30.29,East,100,0.0,1.0,53,14.40,,,18.17,Wunderground v.1.15,2013-03-09 06:29:00,
2013-03-09 01:35:00,40.9,25.1,30.29,ENE,76,2.0,4.0,53,14.40,,,19.52,Wunderground v.1.15,2013-03-09 06:35:00,
2013-03-09 01:40:00,40.9,25.5,30.28,ENE,70,4.0,4.0,54,14.40,,,20.71,Wunderground v.1.15,2013-03-09 06:40:00,
2013-03-09 01:45:00,40.8,25.0,30.28,ENE,74,2.0,3.0,53,14.40,,,21.86,Wunderground v.1.15,2013-03-09 06:45:00,
2013-03-09 01:50:00,40.9,25.1,30.28,ENE,73,4.0,4.0,53,14.40,,,23.02,Wunderground v.1.15,2013-03-09 06:50:00,
2013-03-09 01:56:00,40.9,24.6,30.27,ENE,68,0.0,2.0,52,14.40,,,24.52,Wunderground v.1.15,2013-03-09 06:56:00,
2013-03-09 02:01:00,40.9,24.6,30.27,ENE,70,0.0,4.0,52,14.40,,,25.63,Wunderground v.1.15,2013-03-09 07:01:00,
2013-03-09 02:06:00,40.9,25.1,30.27,NNE,25,0.0,4.0,53,14.40,,,26.79,Wunderground v.1.15,2013-03-09 07:06:00,
2013-03-09 02:11:00,40.6,25.2,30.27,NNE,25,0.0,3.0,54,14.40,,,27.94,Wunderground v.1.15,2013-03-09 07:11:00,
2013-03-09 02:16:00,40.6,24.8,30.27,NNE,30,0.0,5.0,53,14.40,,,29.25,Wunderground v.1.15,2013-03-09 07:16:00,
2013-03-09 02:21:00,40.5,25.1,30.27,NE,40,4.0,6.0,54,14.40,,,30.32,Wunderground v.1.15,2013-03-09 07:21:00,
2013-03-09 02:26:00,40.5,25.1,30.27,East,81,0.0,6.0,54,14.40,,,31.55,Wunderground v.1.15,2013-03-09 07:26:00,
2013-03-09 02:31:00,40.3,25.4,30.27,East,83,0.0,3.0,55,14.40,,,32.74,Wunderground v.1.15,2013-03-09 07:31:00,
2013-03-09 02:36:00,40.2,25.3,30.27,ENE,60,0.0,7.0,55,14.40,,,33.81,Wunderground v.1.15,2013-03-09 07:36:00,
2013-03-09 02:41:00,40.2,25.3,30.27,ENE,57,2.0,2.0,55,14.40,,,35.08,Wunderground v.1.15,2013-03-09 07:41:00,
2013-03-09 02:46:00,40.2,25.3,30.27,ENE,69,0.0,9.0,55,14.40,,,36.19,Wunderground v.1.15,2013-03-09 07:46:00,
2013-03-09 02:51:00,39.9,25.0,30.27,ENE,76,1.0,8.0,55,14.40,,,37.30,Wunderground v.1.15,2013-03-09 07:51:00,
2013-03-09 02:56:00,39.8,25.8,30.26,ENE,69,0.0,8.0,57,14.40,,,38.53,Wunderground v.1.15,2013-03-09 07:56:00,
2013-03-09 03:01:00,39.5,25.1,30.26,NE,53,3.0,4.0,56,14.40,,,39.68,Wunderground v.1.15,2013-03-09 08:01:00,
2013-03-09 03:06:00,39.3,24.9,30.26,ENE,58,1.0,5.0,56,14.40,,,40.80,Wunderground v.1.15,2013-03-09 08:06:00,
2013-03-09 03:11:00,39.2,25.2,30.26,ENE,63,4.0,5.0,57,14.40,,,42.03,Wunderground v.1.15,2013-03-09 08:11:00,
2013-03-09 03:16:00,38.9,24.9,30.26,NNE,21,0.0,7.0,57,14.40,,,43.14,Wunderground v.1.15,2013-03-09 08:16:00,
2013-03-09 03:21:00,38.8,25.3,30.26,East,80,1.0,3.0,58,14.40,,,44.33,Wunderground v.1.15,2013-03-09 08:21:00,
2013-03-09 03:26:00,38.6,25.1,30.26,NE,51,0.0,5.0,58,14.40,,,45.44,Wunderground v.1.15,2013-03-09 08:26:00,
2013-03-09 03:31:00,38.3,24.8,30.26,NE,35,1.0,6.0,58,14.40,,,46.71,Wunderground v.1.15,2013-03-09 08:31:00,
2013-03-09 03:36:00,38.2,25.1,30.26,NE,39,0.0,6.0,59,14.40,,,47.82,Wunderground v.1.15,2013-03-09 08:36:00,
2013-03-09 03:41:00,38.0,24.5,30.25,East,85,1.0,5.0,58,14.40,,,48.93,Wunderground v.1.15,2013-03-09 08:41:00,
2013-03-09 03:46:00,37.9,24.8,30.25,NNE,32,2.0,6.0,59,14.40,,,50.12,Wunderground v.1.15,2013-03-09 08:46:00,
2013-03-09 03:51:00,37.8,25.1,30.25,ENE,61,4.0,5.0,60,14.40,,,51.31,Wunderground v.1.15,2013-03-09 08:51:00,
2013-03-09 03:56:00,37.6,25.0,30.25,ENE,63,3.0,5.0,60,14.40,,,52.54,Wunderground v.1.15,2013-03-09 08:56:00,
2013-03-09 04:01:00,37.3,25.1,30.25,ENE,63,3.0,4.0,61,14.05,,,53.61,Wunderground v.1.15,2013-03-09 09:01:00,
2013-03-09 04:06:00,37.3,25.1,30.25,NNE,20,0.0,8.0,61,14.40,,,54.81,Wunderground v.1.15,2013-03-09 09:06:00,
2013-03-09 04:11:00,37.0,24.8,30.25,NNE,21,1.0,2.0,61,14.40,,,56.00,Wunderground v.1.15,2013-03-09 09:11:00,
2013-03-09 04:17:00,37.0,24.8,30.25,NNE,24,2.0,6.0,61,14.40,,,57.19,Wunderground v.1.15,2013-03-09 09:17:00,
2013-03-09 04:22:00,37.0,25.2,30.25,NE,44,0.0,3.0,62,14.40,,,58.34,Wunderground v.1.15,2013-03-09 09:22:00,
2013-03-09 04:27:00,36.9,25.1,30.25,NE,44,0.0,4.0,62,14.40,,,59.45,Wunderground v.1.15,2013-03-09 09:27:00,
2013-03-09 04:32:00,36.9,25.1,30.25,NNE,15,1.0,4.0,62,14.05,,,60.64,Wunderground v.1.15,2013-03-09 09:32:00,
2013-03-09 04:37:00,36.8,25.0,30.25,ENE,68,0.0,7.0,62,14.40,,,61.71,Wunderground v.1.15,2013-03-09 09:37:00,
2013-03-09 04:42:00,36.8,25.4,30.26,NE,41,0.0,4.0,63,14.40,,,63.02,Wunderground v.1.15,2013-03-09 09:42:00,
2013-03-09 04:47:00,36.5,25.1,30.26,NE,46,2.0,4.0,63,14.40,,,64.05,Wunderground v.1.15,2013-03-09 09:47:00,
2013-03-09 04:52:00,36.5,25.1,30.26,ENE,65,0.0,2.0,63,14.05,,,65.28,Wunderground v.1.15,2013-03-09 09:52:00,
2013-03-09 04:57:00,36.3,25.3,30.27,ENE,63,2.0,3.0,64,14.05,,,66.47,Wunderground v.1.15,2013-03-09 09:57:00,
2013-03-09 05:02:00,36.2,25.2,30.27,NE,37,2.0,6.0,64,14.40,,,67.70,Wunderground v.1.15,2013-03-09 10:02:00,
2013-03-09 05:07:00,36.2,25.2,30.27,NE,37,3.0,6.0,64,14.40,,,68.85,Wunderground v.1.15,2013-03-09 10:07:00,
2013-03-09 05:12:00,36.2,25.2,30.27,North,351,5.0,5.0,64,14.40,,,70.05,Wunderground v.1.15,2013-03-09 10:12:00,
2013-03-09 05:17:00,36.3,25.3,30.27,NNE,32,0.0,5.0,64,14.40,,,71.16,Wunderground v.1.15,2013-03-09 10:17:00,
2013-03-09 05:22:00,36.2,25.2,30.27,NNE,32,0.0,5.0,64,14.40,,,72.15,Wunderground v.1.15,2013-03-09 10:22:00,
2013-03-09 05:27:00,36.2,25.2,30.27,NNE,32,0.0,5.0,64,14.40,,,73.54,Wunderground v.1.15,2013-03-09 10:27:00,
2013-03-09 05:32:00,36.2,25.2,30.27,NNE,32,2.0,4.0,64,14.40,,,74.73,Wunderground v.1.15,2013-03-09 10:32:00,
2013-03-09 05:37:00,36.2,25.6,30.27,NNE,32,0.0,4.0,65,14.40,,,75.88,Wunderground v.1.15,2013-03-09 10:37:00,
2013-03-09 05:42:00,36.3,25.3,30.28,NNE,32,3.0,4.0,64,14.40,,,77.07,Wunderground v.1.15,2013-03-09 10:42:00,
2013-03-09 05:47:00,36.3,25.3,30.28,NNE,26,0.0,4.0,64,14.40,,,78.14,Wunderground v.1.15,2013-03-09 10:47:00,
2013-03-09 05:52:00,36.3,25.3,30.28,North,0,0.0,4.0,64,14.40,,,79.33,Wunderground v.1.15,2013-03-09 10:52:00,
2013-03-09 05:57:00,36.3,25.3,30.29,NNE,17,0.0,6.0,64,14.40,,,80.56,Wunderground v.1.15,2013-03-09 10:57:00,
2013-03-09 06:02:00,36.3,25.3,30.29,NNE,17,0.0,1.0,64,14.40,,,81.67,Wunderground v.1.15,2013-03-09 11:02:00,
2013-03-09 06:07:00,36.3,25.3,30.29,NNE,17,0.0,3.0,64,14.40,,,82.75,Wunderground v.1.15,2013-03-09 11:07:00,
2013-03-09 06:12:00,36.3,25.3,30.29,NNE,18,0.0,0.0,64,14.40,,,84.02,Wunderground v.1.15,2013-03-09 11:12:00,
2013-03-09 06:17:00,36.3,25.7,30.29,NNE,18,0.0,5.0,65,14.40,,,85.21,Wunderground v.1.15,2013-03-09 11:17:00,
2013-03-09 06:22:00,36.5,25.5,30.29,NNE,18,0.0,2.0,64,14.40,,,86.36,Wunderground v.1.15,2013-03-09 11:22:00,
2013-03-09 06:27:00,36.5,25.1,30.30,NNE,18,1.0,5.0,63,14.40,,,87.47,Wunderground v.1.15,2013-03-09 11:27:00,
2013-03-09 06:32:00,36.6,25.6,30.30,NNE,18,0.0,1.0,64,14.40,,,88.74,Wunderground v.1.15,2013-03-09 11:32:00,
2013-03-09 06:37:00,36.6,25.6,30.30,NNW,338,0.0,2.0,64,14.40,,,89.89,Wunderground v.1.15,2013-03-09 11:37:00,
2013-03-09 06:42:00,36.8,25.8,30.30,NNW,347,1.0,3.0,64,14.40,,,90.96,Wunderground v.1.15,2013-03-09 11:42:00,
2013-03-09 06:47:00,36.8,25.4,30.30,North,351,0.0,4.0,63,14.40,,,92.19,Wunderground v.1.15,2013-03-09 11:47:00,
2013-03-09 06:52:00,36.8,25.8,30.30,North,352,0.0,3.0,64,14.40,,,93.38,Wunderground v.1.15,2013-03-09 11:52:00,
2013-03-09 06:57:00,36.6,25.2,30.30,North,352,0.0,3.0,63,14.40,,,94.49,Wunderground v.1.15,2013-03-09 11:57:00,
2013-03-09 07:02:00,36.6,25.2,30.30,NNE,33,0.0,3.0,63,14.40,,,95.68,Wunderground v.1.15,2013-03-09 12:02:00,
2013-03-09 07:08:00,36.6,25.6,30.30,NNE,26,0.0,5.0,64,14.40,,,96.95,Wunderground v.1.15,2013-03-09 12:08:00,
2013-03-09 07:13:00,36.5,25.5,30.31,NNE,26,0.0,3.0,64,14.40,,,98.14,Wunderground v.1.15,2013-03-09 12:13:00,
2013-03-09 07:18:00,36.5,25.5,30.31,NNE,28,0.0,4.0,64,0.14,,,98.29,Wunderground v.1.15,2013-03-09 12:18:00,
2013-03-09 07:23:00,36.5,25.5,30.31,NNE,28,0.0,4.0,64,0.06,,,98.29,Wunderground v.1.15,2013-03-09 12:23:00,
2013-03-09 07:28:00,36.6,25.6,30.31,NNE,28,0.0,4.0,64,0.04,,,98.29,Wunderground v.1.15,2013-03-09 12:28:00,
2013-03-09 07:33:00,36.8,25.8,30.31,NNE,28,0.0,1.0,64,-99.99,,,99.13,Wunderground v.1.15,2013-03-09 12:33:00,
2013-03-09 07:38:00,36.9,26.2,30.31,NNE,28,0.0,1.0,65,30.32,,,99.48,Wunderground v.1.15,2013-03-09 12:38:00,
2013-03-09 07:43:00,37.0,25.9,30.31,ENE,73,0.0,3.0,64,14.40,,,99.99,Wunderground v.1.15,2013-03-09 12:43:00,
2013-03-09 07:48:00,37.5,26.8,30.31,ENE,74,0.0,5.0,65,14.40,,,99.99,Wunderground v.1.15,2013-03-09 12:48:00,
2013-03-09 07:53:00,38.2,26.7,30.31,ENE,76,2.0,5.0,63,14.40,,,99.99,Wunderground v.1.15,2013-03-09 12:53:00,
2013-03-09 07:58:00,38.6,27.1,30.32,East,79,5.0,6.0,63,14.05,,,99.99,Wunderground v.1.15,2013-03-09 12:58:00,
2013-03-09 08:03:00,38.5,26.2,30.32,East,95,3.0,5.0,61,14.05,,,99.99,Wunderground v.1.15,2013-03-09 13:03:00,
2013-03-09 08:08:00,38.6,26.3,30.32,East,96,3.0,6.0,61,14.40,,,99.99,Wunderground v.1.15,2013-03-09 13:08:00,
2013-03-09 08:13:00,38.9,26.6,30.32,East,96,3.0,3.0,61,14.40,,,99.99,Wunderground v.1.15,2013-03-09 13:13:00,
2013-03-09 08:18:00,39.1,26.4,30.32,East,96,4.0,6.0,60,0.20,,,99.99,Wunderground v.1.15,2013-03-09 13:18:00,
2013-03-09 08:23:00,38.8,26.5,30.32,East,95,3.0,5.0,61,0.07,,,99.99,Wunderground v.1.15,2013-03-09 13:23:00,
2013-03-09 08:28:00,38.6,26.7,30.33,East,96,3.0,5.0,62,0.05,,,99.99,Wunderground v.1.15,2013-03-09 13:28:00,
2013-03-09 08:33:00,39.5,27.5,30.33,East,96,2.0,5.0,62,0.00,,,99.99,Wunderground v.1.15,2013-03-09 13:33:00,
2013-03-09 08:38:00,40.1,26.9,30.33,East,99,0.0,5.0,59,0.00,,,99.99,Wunderground v.1.15,2013-03-09 13:38:00,
2013-03-09 08:43:00,40.3,26.7,30.33,East,91,2.0,5.0,58,0.00,,,99.99,Wunderground v.1.15,2013-03-09 13:43:00,
2013-03-09 08:48:00,40.6,27.0,30.33,East,91,2.0,5.0,58,0.00,,,99.99,Wunderground v.1.15,2013-03-09 13:48:00,
2013-03-09 08:53:00,40.8,27.2,30.33,East,91,0.0,3.0,58,0.00,,,99.99,Wunderground v.1.15,2013-03-09 13:53:00,
2013-03-09 08:58:00,41.1,26.6,30.32,East,91,0.0,4.0,56,0.00,,,99.99,Wunderground v.1.15,2013-03-09 13:58:00,
2013-03-09 09:03:00,41.9,27.3,30.32,East,91,0.0,4.0,56,0.00,,,99.99,Wunderground v.1.15,2013-03-09 14:03:00,
2013-03-09 09:09:00,42.6,27.1,30.32,East,94,0.0,5.0,54,0.00,,,99.99,Wunderground v.1.15,2013-03-09 14:09:00,
2013-03-09 09:14:00,43.2,27.7,30.31,East,94,1.0,6.0,54,0.00,,,99.99,Wunderground v.1.15,2013-03-09 14:14:00,
2013-03-09 09:19:00,43.5,27.0,30.31,East,94,0.0,6.0,52,0.00,,,99.99,Wunderground v.1.15,2013-03-09 14:19:00,
2013-03-09 09:24:00,43.3,26.8,30.31,ESE,115,0.0,9.0,52,0.00,,,99.99,Wunderground v.1.15,2013-03-09 14:24:00,
2013-03-09 09:29:00,44.2,27.2,30.31,SE,125,3.0,9.0,51,0.00,,,99.99,Wunderground v.1.15,2013-03-09 14:29:00,
2013-03-09 09:34:00,44.3,26.3,30.31,SE,145,3.0,6.0,49,0.00,,,99.99,Wunderground v.1.15,2013-03-09 14:34:00,
2013-03-09 09:39:00,44.6,26.1,30.31,SSE,148,6.0,10.0,48,0.00,,,99.99,Wunderground v.1.15,2013-03-09 14:39:00,
2013-03-09 09:44:00,44.6,28.0,30.30,SSE,148,0.0,5.0,52,0.00,,,99.99,Wunderground v.1.15,2013-03-09 14:44:00,
2013-03-09 09:49:00,44.8,26.3,30.30,ESE,122,7.0,10.0,48,0.00,,,99.99,Wunderground v.1.15,2013-03-09 14:49:00,
2013-03-09 09:54:00,45.4,28.3,30.30,SE,128,5.0,10.0,51,0.00,,,99.99,Wunderground v.1.15,2013-03-09 14:54:00,
2013-03-09 09:59:00,45.4,27.8,30.30,SSW,205,5.0,12.0,50,0.00,,,99.99,Wunderground v.1.15,2013-03-09 14:59:00,
2013-03-09 10:04:00,46.1,28.5,30.30,SE,136,7.0,12.0,50,14.40,,,99.99,Wunderground v.1.15,2013-03-09 15:04:00,
2013-03-09 10:09:00,46.7,28.0,30.30,SSE,149,4.0,12.0,48,0.16,,,99.99,Wunderground v.1.15,2013-03-09 15:09:00,
2013-03-09 10:14:00,47.1,27.4,30.30,ESE,122,7.0,14.0,46,0.07,,,99.99,Wunderground v.1.15,2013-03-09 15:14:00,
2013-03-09 10:19:00,48.2,26.7,30.30,SSW,198,3.0,14.0,43,0.04,,,99.99,Wunderground v.1.15,2013-03-09 15:19:00,
2013-03-09 10:24:00,49.6,27.4,30.30,SSW,192,7.0,7.0,42,0.00,,,99.99,Wunderground v.1.15,2013-03-09 15:24:00,
2013-03-09 10:29:00,49.1,27.0,30.30,SSE,157,5.0,10.0,42,0.00,,,99.99,Wunderground v.1.15,2013-03-09 15:29:00,
2013-03-09 10:34:00,48.8,26.7,30.30,SSE,150,5.0,12.0,42,0.00,,,99.99,Wunderground v.1.15,2013-03-09 15:34:00,
2013-03-09 10:39:00,49.1,28.1,30.30,SSE,153,7.0,13.0,44,0.00,,,99.99,Wunderground v.1.15,2013-03-09 15:39:00,
2013-03-09 10:44:00,47.9,27.6,30.31,SW,234,3.0,12.0,45,0.00,,,99.99,Wunderground v.1.15,2013-03-09 15:44:00,
2013-03-09 10:49:00,47.9,26.5,30.31,SE,130,8.0,14.0,43,0.00,,,99.99,Wunderground v.1.15,2013-03-09 15:49:00,
2013-03-09 10:54:00,47.9,27.6,30.31,SSE,156,3.0,12.0,45,0.00,,,99.99,Wunderground v.1.15,2013-03-09 15:54:00,
2013-03-09 10:59:00,48.2,26.2,30.31,South,169,4.0,12.0,42,0.00,,,99.99,Wunderground v.1.15,2013-03-09 15:59:00,
2013-03-09 11:04:00,48.5,27.0,30.31,SE,131,3.0,7.0,43,0.00,,,99.99,Wunderground v.1.15,2013-03-09 16:04:00,
2013-03-09 11:09:00,48.8,26.1,30.31,SSE,161,4.0,10.0,41,0.00,,,99.99,Wunderground v.1.15,2013-03-09 16:09:00,
2013-03-09 11:14:00,48.6,25.9,30.31,SSE,151,3.0,7.0,41,0.00,,,99.99,Wunderground v.1.15,2013-03-09 16:14:00,
2013-03-09 11:19:00,48.6,26.5,30.31,SSE,164,4.0,7.0,42,0.00,,,99.99,Wunderground v.1.15,2013-03-09 16:19:00,
2013-03-09 11:24:00,48.6,26.5,30.31,SSE,150,6.0,9.0,42,0.00,,,99.99,Wunderground v.1.15,2013-03-09 16:24:00,
2013-03-09 11:30:00,49.1,27.0,30.31,SSE,162,3.0,3.0,42,0.00,,,99.99,Wunderground v.1.15,2013-03-09 16:30:00,
2013-03-09 11:35:00,49.8,27.0,30.31,South,176,2.0,6.0,41,0.00,,,99.99,Wunderground v.1.15,2013-03-09 16:35:00,
2013-03-09 11:40:00,49.4,26.1,30.31,SE,143,4.0,5.0,40,0.00,,,99.99,Wunderground v.1.15,2013-03-09 16:40:00,
2013-03-09 11:45:00,49.1,25.8,30.31,SE,146,4.0,11.0,40,0.00,,,99.99,Wunderground v.1.15,2013-03-09 16:45:00,
2013-03-09 11:50:00,48.9,26.8,30.31,SE,136,3.0,7.0,42,0.00,,,99.99,Wunderground v.1.15,2013-03-09 16:50:00,
2013-03-09 11:55:00,48.8,26.7,30.30,SE,144,7.0,10.0,42,0.00,,,99.99,Wunderground v.1.15,2013-03-09 16:55:00,
2013-03-09 12:00:00,48.3,26.8,30.30,SE,129,8.0,9.0,43,0.00,,,99.99,Wunderground v.1.15,2013-03-09 17:00:00,
2013-03-09 12:05:00,48.8,27.3,30.30,SSE,149,4.0,15.0,43,0.00,,,99.99,Wunderground v.1.15,2013-03-09 17:05:00,
2013-03-09 12:10:00,49.5,27.3,30.29,SE,136,5.0,7.0,42,0.00,,,99.99,Wunderground v.1.15,2013-03-09 17:10:00,
2013-03-09 12:15:00,50.1,28.4,30.29,SSW,209,3.0,10.0,43,0.00,,,99.99,Wunderground v.1.15,2013-03-09 17:15:00,
2013-03-09 12:20:00,51.0,29.3,30.29,SE,143,2.0,4.0,43,0.00,,,99.99,Wunderground v.1.15,2013-03-09 17:20:00,
2013-03-09 12:25:00,51.4,27.9,30.28,ESE,109,4.0,10.0,40,0.00,,,99.99,Wunderground v.1.15,2013-03-09 17:25:00,
2013-03-09 12:30:00,52.2,28.0,30.28,SE,129,5.0,5.0,39,0.00,,,99.99,Wunderground v.1.15,2013-03-09 17:30:00,
2013-03-09 12:35:00,52.3,28.7,30.28,SE,145,0.0,11.0,40,0.00,,,99.99,Wunderground v.1.15,2013-03-09 17:35:00,
2013-03-09 12:40:00,52.8,28.5,30.27,SSE,155,3.0,3.0,39,0.00,,,99.99,Wunderground v.1.15,2013-03-09 17:40:00,
2013-03-09 12:45:00,52.6,28.3,30.27,ESE,106,9.0,10.0,39,0.00,,,99.99,Wunderground v.1.15,2013-03-09 17:45:00,
2013-03-09 12:50:00,52.8,29.7,30.27,SSE,160,4.0,4.0,41,0.00,,,99.99,Wunderground v.1.15,2013-03-09 17:50:00,
2013-03-09 12:55:00,53.2,28.2,30.27,SSE,162,3.0,4.0,38,0.00,,,99.99,Wunderground v.1.15,2013-03-09 17:55:00,
2013-03-09 13:00:00,52.2,28.6,30.27,SE,125,5.0,5.0,40,0.00,,,99.99,Wunderground v.1.15,2013-03-09 18:00:00,
2013-03-09 13:05:00,51.7,28.7,30.27,SE,141,7.0,7.0,41,0.00,,,99.99,Wunderground v.1.15,2013-03-09 18:05:00,
2013-03-09 13:10:00,51.6,28.0,30.27,SE,143,3.0,3.0,40,0.00,,,99.99,Wunderground v.1.15,2013-03-09 18:10:00,
2013-03-09 13:15:00,51.3,27.8,30.27,SSE,149,0.0,6.0,40,0.00,,,99.99,Wunderground v.1.15,2013-03-09 18:15:00,
2013-03-09 13:20:00,51.1,28.2,30.27,SE,146,3.0,3.0,41,0.00,,,99.99,Wunderground v.1.15,2013-03-09 18:20:00,
2013-03-09 13:25:00,51.4,28.5,30.26,SE,143,3.0,9.0,41,0.00,,,99.99,Wunderground v.1.15,2013-03-09 18:25:00,
2013-03-09 13:30:00,51.7,28.1,30.26,SSE,160,2.0,2.0,40,0.00,,,99.99,Wunderground v.1.15,2013-03-09 18:30:00,
2013-03-09 13:35:00,51.9,28.9,30.26,SSE,160,1.0,5.0,41,0.00,,,99.99,Wunderground v.1.15,2013-03-09 18:35:00,
2013-03-09 13:40:00,52.2,28.0,30.26,SSE,160,0.0,1.0,39,0.00,,,99.99,Wunderground v.1.15,2013-03-09 18:40:00,
2013-03-09 13:45:00,52.8,28.5,30.26,SE,128,7.0,9.0,39,0.00,,,99.99,Wunderground v.1.15,2013-03-09 18:45:00,
2013-03-09 13:50:00,52.8,28.5,30.26,SE,141,0.0,3.0,39,0.00,,,99.99,Wunderground v.1.15,2013-03-09 18:50:00,
2013-03-09 13:55:00,53.2,29.5,30.24,SE,144,0.0,6.0,40,0.00,,,99.99,Wunderground v.1.15,2013-03-09 18:55:00,
2013-03-09 14:00:00,53.8,28.8,30.24,ESE,120,5.0,6.0,38,0.00,,,99.99,Wunderground v.1.15,2013-03-09 19:00:00,
2013-03-09 14:05:00,54.5,30.0,30.24,SE,124,3.0,6.0,39,0.00,,,99.99,Wunderground v.1.15,2013-03-09 19:05:00,
2013-03-09 14:10:00,54.7,28.9,30.23,SE,125,3.0,4.0,37,0.00,,,99.99,Wunderground v.1.15,2013-03-09 19:10:00,
2013-03-09 14:15:00,55.3,30.1,30.23,SE,125,0.0,9.0,38,0.00,,,99.99,Wunderground v.1.15,2013-03-09 19:15:00,
2013-03-09 14:21:00,55.0,29.2,30.23,ESE,111,7.0,8.0,37,0.00,,,99.99,Wunderground v.1.15,2013-03-09 19:21:00,
2013-03-09 14:26:00,54.4,28.6,30.24,SE,136,10.0,14.0,37,0.00,,,99.99,Wunderground v.1.15,2013-03-09 19:26:00,
2013-03-09 14:31:00,53.8,28.8,30.24,SE,129,5.0,7.0,38,0.00,,,99.99,Wunderground v.1.15,2013-03-09 19:31:00,
2013-03-09 14:36:00,54.1,29.7,30.24,SE,144,2.0,12.0,39,0.00,,,99.99,Wunderground v.1.15,2013-03-09 19:36:00,
2013-03-09 14:41:00,54.4,29.9,30.24,SE,141,1.0,9.0,39,0.00,,,99.99,Wunderground v.1.15,2013-03-09 19:41:00,
2013-03-09 14:46:00,54.7,29.6,30.24,SE,143,3.0,9.0,38,0.00,,,99.99,Wunderground v.1.15,2013-03-09 19:46:00,
2013-03-09 14:51:00,54.8,29.7,30.24,SSE,152,3.0,6.0,38,0.00,,,99.99,Wunderground v.1.15,2013-03-09 19:51:00,
2013-03-09 14:56:00,55.0,29.8,30.23,ESE,121,0.0,10.0,38,0.00,,,99.99,Wunderground v.1.15,2013-03-09 19:56:00,
2013-03-09 15:01:00,55.4,28.9,30.23,SE,139,5.0,10.0,36,0.00,,,99.99,Wunderground v.1.15,2013-03-09 20:01:00,
2013-03-09 15:06:00,56.0,28.7,30.23,ESE,121,7.0,11.0,35,0.00,,,99.99,Wunderground v.1.15,2013-03-09 20:06:00,
2013-03-09 15:11:00,56.6,29.9,30.22,SSE,147,5.0,6.0,36,0.00,,,99.99,Wunderground v.1.15,2013-03-09 20:11:00,
2013-03-09 15:16:00,56.5,29.1,30.22,SE,127,9.0,11.0,35,0.00,,,99.99,Wunderground v.1.15,2013-03-09 20:16:00,
2013-03-09 15:21:00,55.9,28.6,30.22,SE,145,6.0,7.0,35,0.00,,,99.99,Wunderground v.1.15,2013-03-09 20:21:00,
2013-03-09 15:26:00,55.9,29.3,30.23,SSE,148,4.0,11.0,36,0.00,,,99.99,Wunderground v.1.15,2013-03-09 20:26:00,
2013-03-09 15:31:00,55.7,29.1,30.23,SE,136,5.0,7.0,36,0.00,,,99.99,Wunderground v.1.15,2013-03-09 20:31:00,
2013-03-09 15:36:00,55.7,29.8,30.23,SE,142,10.0,11.0,37,0.00,,,99.99,Wunderground v.1.15,2013-03-09 20:36:00,
2013-03-09 15:41:00,55.6,30.4,30.22,ESE,105,0.0,9.0,38,0.00,,,99.99,Wunderground v.1.15,2013-03-09 20:41:00,
2013-03-09 15:46:00,55.6,29.7,30.22,SE,139,3.0,12.0,37,0.00,,,99.99,Wunderground v.1.15,2013-03-09 20:46:00,
2013-03-09 15:51:00,55.4,28.9,30.22,SE,138,8.0,11.0,36,0.00,,,99.99,Wunderground v.1.15,2013-03-09 20:51:00,
2013-03-09 15:56:00,55.6,29.0,30.22,SE,141,6.0,11.0,36,0.00,,,99.99,Wunderground v.1.15,2013-03-09 20:56:00,
2013-03-09 16:01:00,55.7,29.1,30.22,SSE,157,2.0,6.0,36,0.00,,,99.99,Wunderground v.1.15,2013-03-09 21:01:00,
2013-03-09 16:06:00,56.0,30.1,30.22,WNW,297,0.0,6.0,37,0.00,,,99.99,Wunderground v.1.15,2013-03-09 21:06:00,
2013-03-09 16:11:00,56.3,29.0,30.22,SSE,152,1.0,6.0,35,0.00,,,99.99,Wunderground v.1.15,2013-03-09 21:11:00,
2013-03-09 16:16:00,56.2,30.2,30.22,SSE,151,4.0,9.0,37,0.00,,,99.99,Wunderground v.1.15,2013-03-09 21:16:00,
2013-03-09 16:21:00,56.2,29.6,30.22,SE,136,2.0,6.0,36,0.00,,,99.99,Wunderground v.1.15,2013-03-09 21:21:00,
2013-03-09 16:26:00,56.0,29.4,30.22,SE,146,0.0,7.0,36,0.00,,,99.99,Wunderground v.1.15,2013-03-09 21:26:00,
2013-03-09 16:31:00,55.9,29.3,30.22,SE,146,0.0,3.0,36,0.00,,,99.99,Wunderground v.1.15,2013-03-09 21:31:00,
2013-03-09 16:36:00,55.9,30.0,30.22,SSE,158,0.0,5.0,37,0.00,,,99.99,Wunderground v.1.15,2013-03-09 21:36:00,
2013-03-09 16:41:00,55.9,29.3,30.22,SSE,158,0.0,2.0,36,0.00,,,99.99,Wunderground v.1.15,2013-03-09 21:41:00,
2013-03-09 16:46:00,55.9,30.6,30.22,SSE,158,0.0,4.0,38,0.00,,,99.99,Wunderground v.1.15,2013-03-09 21:46:00,
2013-03-09 16:51:00,55.9,30.0,30.22,SSE,158,4.0,4.0,37,0.00,,,99.99,Wunderground v.1.15,2013-03-09 21:51:00,
2013-03-09 16:57:00,55.6,30.4,30.22,SSE,157,3.0,6.0,38,0.00,,,99.99,Wunderground v.1.15,2013-03-09 21:57:00,
2013-03-09 17:02:00,55.4,30.2,30.22,SE,136,1.0,7.0,38,0.00,,,99.99,Wunderground v.1.15,2013-03-09 22:02:00,
2013-03-09 17:07:00,55.3,28.8,30.22,SE,144,2.0,7.0,36,0.00,,,99.99,Wunderground v.1.15,2013-03-09 22:07:00,
2013-03-09 17:12:00,55.1,29.3,30.22,SSE,168,5.0,7.0,37,0.00,,,99.99,Wunderground v.1.15,2013-03-09 22:12:00,
2013-03-09 17:17:00,54.8,28.3,30.22,SE,131,6.0,7.0,36,0.00,,,99.99,Wunderground v.1.15,2013-03-09 22:17:00,
2013-03-09 17:22:00,54.7,29.6,30.22,SE,139,4.0,12.0,38,0.00,,,99.99,Wunderground v.1.15,2013-03-09 22:22:00,
2013-03-09 17:27:00,54.5,30.0,30.21,SE,141,0.0,12.0,39,0.00,,,99.99,Wunderground v.1.15,2013-03-09 22:27:00,
2013-03-09 17:32:00,54.4,28.6,30.21,SE,135,1.0,12.0,37,0.00,,,99.99,Wunderground v.1.15,2013-03-09 22:32:00,
2013-03-09 17:37:00,54.4,29.9,30.21,SE,135,0.0,12.0,39,0.00,,,99.99,Wunderground v.1.15,2013-03-09 22:37:00,
2013-03-09 17:42:00,54.4,29.3,30.21,SE,135,4.0,6.0,38,0.00,,,99.99,Wunderground v.1.15,2013-03-09 22:42:00,
2013-03-09 17:47:00,54.2,29.1,30.21,SE,135,2.0,6.0,38,0.00,,,99.99,Wunderground v.1.15,2013-03-09 22:47:00,
2013-03-09 17:52:00,54.4,29.9,30.21,SE,135,5.0,5.0,39,0.00,,,99.99,Wunderground v.1.15,2013-03-09 22:52:00,
2013-03-09 17:57:00,54.4,29.3,30.21,SE,146,0.0,7.0,38,0.00,,,99.99,Wunderground v.1.15,2013-03-09 22:57:00,
2013-03-09 18:02:00,54.2,29.8,30.21,SE,146,0.0,5.0,39,0.00,,,99.99,Wunderground v.1.15,2013-03-09 23:02:00,
2013-03-09 18:07:00,54.1,29.7,30.21,SE,146,2.0,6.0,39,0.00,,,99.99,Wunderground v.1.15,2013-03-09 23:07:00,
2013-03-09 18:12:00,53.8,29.4,30.20,SE,143,2.0,7.0,39,0.00,,,99.99,Wunderground v.1.15,2013-03-09 23:12:00,
2013-03-09 18:17:00,53.5,29.1,30.20,SE,131,5.0,7.0,39,0.00,,,99.99,Wunderground v.1.15,2013-03-09 23:17:00,
2013-03-09 18:23:00,53.3,28.9,30.20,SE,144,3.0,6.0,39,0.00,,,99.99,Wunderground v.1.15,2013-03-09 23:23:00,
2013-03-09 18:28:00,53.2,28.9,30.21,SE,137,0.0,6.0,39,0.00,,,99.99,Wunderground v.1.15,2013-03-09 23:28:00,
2013-03-09 18:33:00,52.9,29.2,30.21,SE,143,4.0,5.0,40,0.00,,,99.99,Wunderground v.1.15,2013-03-09 23:33:00,
2013-03-09 18:38:00,52.8,29.7,30.21,SE,137,3.0,5.0,41,0.00,,,99.99,Wunderground v.1.15,2013-03-09 23:38:00,
2013-03-09 18:43:00,52.8,29.7,30.21,SE,141,0.0,5.0,41,0.00,,,99.99,Wunderground v.1.15,2013-03-09 23:43:00,
2013-03-09 18:48:00,52.5,30.0,30.21,SE,141,4.0,5.0,42,0.00,,,99.99,Wunderground v.1.15,2013-03-09 23:48:00,
2013-03-09 18:53:00,52.5,29.5,30.21,SE,143,5.0,8.0,41,0.00,,,99.99,Wunderground v.1.15,2013-03-09 23:53:00,
2013-03-09 18:58:00,52.5,30.0,30.21,SE,131,7.0,9.0,42,0.00,,,99.99,Wunderground v.1.15,2013-03-09 23:58:00,
2013-03-09 19:03:00,52.6,28.9,30.21,SE,133,6.0,10.0,40,0.00,,,99.99,Wunderground v.1.15,2013-03-10 00:03:00,
2013-03-09 19:08:00,52.3,29.9,30.21,SE,133,3.0,10.0,42,0.00,,,99.99,Wunderground v.1.15,2013-03-10 00:08:00,
2013-03-09 19:13:00,52.2,29.8,30.22,SE,136,1.0,7.0,42,0.00,,,99.99,Wunderground v.1.15,2013-03-10 00:13:00,
2013-03-09 19:18:00,52.0,29.6,30.22,SE,136,4.0,7.0,42,0.00,,,99.99,Wunderground v.1.15,2013-03-10 00:18:00,
2013-03-09 19:23:00,52.2,29.2,30.22,SE,141,5.0,10.0,41,0.00,,,99.99,Wunderground v.1.15,2013-03-10 00:23:00,
2013-03-09 19:28:00,52.2,29.2,30.21,SE,146,3.0,10.0,41,0.00,,,99.99,Wunderground v.1.15,2013-03-10 00:28:00,
2013-03-09 19:33:00,52.0,29.6,30.21,SE,134,3.0,7.0,42,0.00,,,99.99,Wunderground v.1.15,2013-03-10 00:33:00,
2013-03-09 19:38:00,51.9,29.5,30.21,SE,134,2.0,7.0,42,0.00,,,99.99,Wunderground v.1.15,2013-03-10 00:38:00,
2013-03-09 19:43:00,51.6,29.8,30.21,SE,135,5.0,5.0,43,0.00,,,99.99,Wunderground v.1.15,2013-03-10 00:43:00,
2013-03-09 19:49:00,51.4,29.6,30.21,SE,136,3.0,5.0,43,0.00,,,99.99,Wunderground v.1.15,2013-03-10 00:49:00,
2013-03-09 19:54:00,51.3,29.5,30.21,SE,136,3.0,7.0,43,0.00,,,99.99,Wunderground v.1.15,2013-03-10 00:54:00,
2013-03-09 19:59:00,51.1,29.4,30.21,SE,143,2.0,7.0,43,0.00,,,99.99,Wunderground v.1.15,2013-03-10 00:59:00,
2013-03-09 20:04:00,51.1,29.4,30.21,SE,138,0.0,10.0,43,0.00,,,99.99,Wunderground v.1.15,2013-03-10 01:04:00,
2013-03-09 20:09:00,50.7,29.6,30.21,SE,138,0.0,10.0,44,0.00,,,99.99,Wunderground v.1.15,2013-03-10 01:09:00,
2013-03-09 20:14:00,50.7,30.1,30.21,SE,138,0.0,4.0,45,0.00,,,99.99,Wunderground v.1.15,2013-03-10 01:14:00,
2013-03-09 20:19:00,50.4,29.8,30.21,SE,139,0.0,4.0,45,0.00,,,99.99,Wunderground v.1.15,2013-03-10 01:19:00,
2013-03-09 20:24:00,50.4,29.8,30.21,SE,139,0.0,4.0,45,0.00,,,99.99,Wunderground v.1.15,2013-03-10 01:24:00,
2013-03-09 20:29:00,50.5,29.4,30.20,SE,140,1.0,4.0,44,0.00,,,99.99,Wunderground v.1.15,2013-03-10 01:29:00,
2013-03-09 20:34:00,50.7,29.6,30.20,SE,141,2.0,4.0,44,0.00,,,99.99,Wunderground v.1.15,2013-03-10 01:34:00,
2013-03-09 20:39:00,50.5,29.4,30.20,SW,224,0.0,4.0,44,0.00,,,99.99,Wunderground v.1.15,2013-03-10 01:39:00,
2013-03-09 20:44:00,50.7,29.6,30.20,SE,139,1.0,6.0,44,0.00,,,99.99,Wunderground v.1.15,2013-03-10 01:44:00,
2013-03-09 20:49:00,50.8,29.6,30.20,SSE,150,0.0,11.0,44,0.00,,,99.99,Wunderground v.1.15,2013-03-10 01:49:00,
2013-03-09 20:54:00,50.5,28.8,30.20,SSE,150,0.0,4.0,43,0.00,,,99.99,Wunderground v.1.15,2013-03-10 01:54:00,
2013-03-09 20:59:00,50.5,28.8,30.20,SE,143,4.0,7.0,43,0.00,,,99.99,Wunderground v.1.15,2013-03-10 01:59:00,
2013-03-09 21:04:00,50.7,29.0,30.20,SE,145,2.0,4.0,43,0.00,,,99.99,Wunderground v.1.15,2013-03-10 02:04:00,
2013-03-09 21:09:00,50.7,29.6,30.20,South,188,0.0,7.0,44,0.00,,,99.99,Wunderground v.1.15,2013-03-10 02:09:00,
2013-03-09 21:14:00,50.7,29.6,30.19,SSE,160,0.0,6.0,44,0.00,,,99.99,Wunderground v.1.15,2013-03-10 02:14:00,
2013-03-09 21:19:00,50.7,29.6,30.19,SE,145,1.0,6.0,44,0.00,,,99.99,Wunderground v.1.15,2013-03-10 02:19:00,
2013-03-09 21:24:00,50.8,29.1,30.19,SE,146,0.0,6.0,43,0.00,,,99.99,Wunderground v.1.15,2013-03-10 02:24:00,
2013-03-09 21:29:00,50.8,29.6,30.18,SE,139,7.0,9.0,44,0.00,,,99.99,Wunderground v.1.15,2013-03-10 02:29:00,
2013-03-09 21:34:00,50.7,29.6,30.18,SSE,155,3.0,7.0,44,0.00,,,99.99,Wunderground v.1.15,2013-03-10 02:34:00,
2013-03-09 21:39:00,50.5,28.8,30.18,SSE,168,3.0,7.0,43,0.00,,,99.99,Wunderground v.1.15,2013-03-10 02:39:00,
2013-03-09 21:44:00,50.4,29.3,30.18,South,169,3.0,5.0,44,0.00,,,99.99,Wunderground v.1.15,2013-03-10 02:44:00,
2013-03-09 21:49:00,50.1,29.0,30.18,South,169,0.0,5.0,44,0.00,,,99.99,Wunderground v.1.15,2013-03-10 02:49:00,
2013-03-09 21:54:00,49.9,28.8,30.18,South,169,0.0,4.0,44,0.00,,,99.99,Wunderground v.1.15,2013-03-10 02:54:00,
2013-03-09 21:59:00,49.8,29.3,30.19,South,169,3.0,4.0,45,0.00,,,99.99,Wunderground v.1.15,2013-03-10 02:59:00,
2013-03-09 22:04:00,49.9,29.4,30.19,South,169,3.0,4.0,45,0.00,,,99.99,Wunderground v.1.15,2013-03-10 03:04:00,
2013-03-09 22:09:00,50.2,29.1,30.19,SSE,168,0.0,5.0,44,0.00,,,99.99,Wunderground v.1.15,2013-03-10 03:09:00,
2013-03-09 22:14:00,49.9,29.4,30.19,South,169,1.0,4.0,45,0.00,,,99.99,Wunderground v.1.15,2013-03-10 03:14:00,
2013-03-09 22:19:00,50.5,29.4,30.19,SSE,163,3.0,7.0,44,0.00,,,99.99,Wunderground v.1.15,2013-03-10 03:19:00,
2013-03-09 22:24:00,50.8,29.6,30.19,South,172,2.0,7.0,44,0.00,,,99.99,Wunderground v.1.15,2013-03-10 03:24:00,
2013-03-09 22:30:00,51.1,29.4,30.19,South,171,3.0,3.0,43,0.00,,,99.99,Wunderground v.1.15,2013-03-10 03:30:00,
2013-03-09 22:35:00,51.1,29.4,30.19,South,171,2.0,6.0,43,0.00,,,99.99,Wunderground v.1.15,2013-03-10 03:35:00,
2013-03-09 22:40:00,51.4,29.6,30.19,South,181,0.0,3.0,43,0.00,,,99.99,Wunderground v.1.15,2013-03-10 03:40:00,
2013-03-09 22:45:00,51.3,29.5,30.19,SSE,148,2.0,14.0,43,0.00,,,99.99,Wunderground v.1.15,2013-03-10 03:45:00,
2013-03-09 22:50:00,51.1,29.4,30.19,SSE,148,3.0,3.0,43,0.00,,,99.99,Wunderground v.1.15,2013-03-10 03:50:00,
2013-03-09 22:55:00,51.3,29.0,30.18,SW,219,6.0,7.0,42,0.00,,,99.99,Wunderground v.1.15,2013-03-10 03:55:00,
2013-03-09 23:00:00,51.3,29.5,30.18,SE,146,6.0,7.0,43,0.00,,,99.99,Wunderground v.1.15,2013-03-10 04:00:00,
2013-03-09 23:05:00,51.3,29.0,30.18,SE,132,0.0,7.0,42,0.00,,,99.99,Wunderground v.1.15,2013-03-10 04:05:00,
2013-03-09 23:10:00,51.3,29.5,30.17,SSW,200,1.0,4.0,43,0.00,,,99.99,Wunderground v.1.15,2013-03-10 04:10:00,
2013-03-09 23:15:00,51.1,29.4,30.17,SSW,200,0.0,4.0,43,0.00,,,99.99,Wunderground v.1.15,2013-03-10 04:15:00,
2013-03-09 23:20:00,51.0,29.8,30.17,South,180,3.0,3.0,44,0.00,,,99.99,Wunderground v.1.15,2013-03-10 04:20:00,
2013-03-09 23:25:00,51.0,29.3,30.17,SW,224,4.0,9.0,43,0.00,,,99.99,Wunderground v.1.15,2013-03-10 04:25:00,
2013-03-09 23:30:00,51.3,29.5,30.17,SSE,163,1.0,4.0,43,0.00,,,99.99,Wunderground v.1.15,2013-03-10 04:30:00,
2013-03-09 23:35:00,51.4,29.6,30.17,South,172,1.0,6.0,43,0.00,,,99.99,Wunderground v.1.15,2013-03-10 04:35:00,
2013-03-09 23:40:00,51.6,29.8,30.16,SSW,203,6.0,7.0,43,0.00,,,99.99,Wunderground v.1.15,2013-03-10 04:40:00,
2013-03-09 23:45:00,51.7,29.3,30.16,SE,142,2.0,7.0,42,0.00,,,99.99,Wunderground v.1.15,2013-03-10 04:45:00,
2013-03-09 23:50:00,51.6,29.8,30.16,SE,144,7.0,7.0,43,0.00,,,99.99,Wunderground v.1.15,2013-03-10 04:50:00,
2013-03-09 23:56:00,51.7,29.3,30.16,SSE,152,4.0,12.0,42,0.00,,,99.99,Wunderground v.1.15,2013-03-10 04:56:00,